Tracking 20066 objects as of 7-Dec-2019
HD Live streaming from Space Station
objects crossing your sky now

TBEX-B

Track TBEX-B now!
10-day predictions
TBEX-B is classified as:


NORAD ID: 44359
Int'l Code: 2019-036W
Perigee: 304.5 km
Apogee: 784.6 km
Inclination: 28.5 °
Period: 95.4 minutes
Semi major axis: 6915 km
RCS: Unknown
Launch date: June 25, 2019
Source: United States (US)
Launch site: AIR FORCE EASTERN TEST RANGE (AFETR)

Uplink (MHz):
Downlink (MHz): 437.535
Beacon (MHz):
Mode: 9600bps GMSK
Call sign:
Status: Unknown

aabbcc
Your satellite tracking list
Your tracking list is empty




NASA's NSSDC Master Catalog

Two Line Element Set (TLE):
1 44359U 19036W   19340.33493995  .00049562  00000-0  65109-3 0  9996
2 44359  28.5201 204.1466 0347104  56.2075 307.1089 15.09595911 24540
Source of the keplerian elements: AFSPC